sat.trackr.live / text

‹ back to catalog

STARLINK-34658

NORAD 64802 · 2025-150N

PAYLOAD ACTIVE UNKNOWN

§ Identity

Operator
Country
US
Launch date
2025-07-16
Launch site
AFWTR
Launch vehicle
Mass (kg)
RCS (m²)

Purposes: comms

External: N2YO · Heavens-Above · Gunter

§ Orbital elements

Epoch: 2026-05-24T20:50:42.768384Z

Period
96.11 min
Inclination
70.0005°
Eccentricity
0.0003126
Mean motion
14.98336495 rev/d
Perigee alt
569.9 km
Apogee alt
574.2 km
Semi-major
6,950.2 km
B*
2.1545e-4
RAAN
302.5388°
Arg perigee
267.9999°
Mean anomaly
92.0802°
Rev number
4,792

§ Raw data

STARLINK-346581 64802U 25150N   26144.86855056  .00002479  00000+0  21545-3 0  99942 64802  70.0005 302.5388 0003126 267.9999  92.0802 14.98336495 47921

JSON: /api/v1/satellites/64802 · /tle

For live sub-satellite position, see the globe view (requires WebGL).

§ Visibility from observer

Set your observer location to see the next 7 days of passes ≥ 10°. The values pass through the URL so the page stays shareable.

No JS? Fill the form by hand. The geolocation button needs JavaScript.